Regional Weather Roundup
Issued by NWS

Home | Current Version | Previous Version | Text Only | Print | Product List | Glossary On
Versions: 1 2 3 4 5 6 7 8 9 10 11 12 13 14 15 16 17 18 19 20 21 22 23 24 25 26 27 28 29 30 31 32 33 34 35 36 37 38 39 40 41 42 43 44 45 46 47 48 49 50
000
ASUS43 KLSX 160507
RWRMO

WEATHER SUMMARY FOR MISSOURI
NATIONAL WEATHER SERVICE SPRINGFIELD MO
1200 AM CDT WED APR 16 2014

NOTE: "FAIR" INDICATES FEW OR NO CLOUDS BELOW 12,000 FEET WITH NO
       SIGNIFICANT WEATHER AND/OR OBSTRUCTIONS TO VISIBILITY.
       CURRENT SKY AND/OR WEATHER CONDITIONS ARE NOT AVAILABLE FOR
       CHILLICOTHE AND FARMINGTON.

MOZ001>031-035>038-043-044-053-054-160600-
...NORTHERN AND WESTERN MISSOURI...

CITY           SKY/WX    TMP DP  RH WIND       PRES   REMARKS
KANSAS CTY INT PTCLDY    47  26  44 S20       30.00F
KANSAS C DTWN  CLEAR     49  26  41 S10G18    30.02F
LEE`S SUMMIT   MOCLDY    45  27  49 S13G20    30.04F
ST JOSEPH      PTCLDY    46  29  51 S17       29.97F
CHILLICOTHE      N/A     45  28  51 S10       30.06F
KIRKSVILLE     CLOUDY    38  26  62 S13       30.09F WCI  30

$$
MOZ066>068-077>081-088>096-101>105-160600-
...SOUTHWEST MISSOURI...

CITY           SKY/WX    TMP DP  RH WIND       PRES   REMARKS
SPRINGFIELD    MOCLDY    42  25  50 SE12      30.12F
JOPLIN         CLEAR     45  26  47 SE10      30.09F

$$
MOZ032>034-039>042-045>050-055>058-069>072-160600-
...CENTRAL MISSOURI...

CITY           SKY/WX    TMP DP  RH WIND       PRES   REMARKS
COLUMBIA       CLEAR     39  25  57 SE7       30.14S
JEFFERSON CITY PTCLDY    42  24  49 E8        30.16S
ROLLA          MOCLDY    38  22  52 SE9       30.14F
SEDALIA        PTCLDY    43  22  43 SE12      30.11F
WHITEMAN AFB   PTCLDY    44  22  41 S12       30.08F
OSAGE BEACH    PTCLDY    39  23  52 SE6       30.16S

$$
MOZ051-052-059>065-160600-
...EAST CENTRAL MISSOURI...

CITY           SKY/WX    TMP DP  RH WIND       PRES   REMARKS
ST LOUIS INTL  PTCLDY    43  20  39 SE10      30.21F
SPIRIT OF STL  CLEAR     38  22  52 SE5       30.20S
ST CHARLES     CLEAR     37  28  70 SE8       30.20F

$$
MOZ072>076-082>087-097>100-106>115-160600-
...SOUTH CENTRAL AND SOUTHEAST MISSOURI...

CITY           SKY/WX    TMP DP  RH WIND       PRES   REMARKS
CAPE GIRARDEAU CLEAR     38  27  64 SE5       30.26R
FARMINGTON     PTCLDY    36  21  55 SE3       30.23S
POPLAR BLUFF   CLEAR     42  30  62 MISG      30.24R
WEST PLAINS    PTCLDY    40  21  46 SE5       30.18F

$$



USA.gov is the U.S. government's official web portal to all federal, state and local government web resources and services.